N318TT TKPK-SYCJ

Flight info

Callsign N318TT
Flight time 2h 38m
Altitude 37000
Route KIPUR1 ANASU DCT FOF UA312 TIM
Aircraft C550/L-SDFGHRWY/S

Departure

Time 2026-04-28 05:48
Airport Robert L. Bradshaw International Airport (TKPK)

Arrival

Time 2026-04-28 08:27
Airport Cheddi Jagan International Airport (SYCJ)
Time Latitude Longitude Altitude Speed Heading
2026-04-28 05:05 17.31121 -62.71543 150 ft 0 kts 147°
2026-04-28 05:43 17.31107 -62.71544 149 ft 3 kts 224°
2026-04-28 05:43 17.31098 -62.71560 150 ft 1 kts 242°
2026-04-28 05:44 17.31094 -62.71568 150 ft 1 kts 250°
2026-04-28 05:44 17.31090 -62.71591 152 ft 4 kts 257°
2026-04-28 05:44 17.31073 -62.71635 153 ft 9 kts 233°
2026-04-28 05:44 17.31025 -62.71713 154 ft 15 kts 238°
2026-04-28 05:45 17.30956 -62.71823 158 ft 19 kts 234°
2026-04-28 05:45 17.30875 -62.71949 159 ft 21 kts 236°
2026-04-28 05:45 17.30789 -62.72082 161 ft 14 kts 235°
2026-04-28 05:45 17.30757 -62.72133 162 ft 8 kts 236°
2026-04-28 05:46 17.30723 -62.72194 163 ft 10 kts 255°
2026-04-28 05:46 17.30716 -62.72277 165 ft 12 kts 271°
2026-04-28 05:46 17.30713 -62.72371 167 ft 13 kts 265°
2026-04-28 05:46 17.30708 -62.72473 170 ft 14 kts 265°
2026-04-28 05:47 17.30675 -62.72577 171 ft 16 kts 238°
2026-04-28 05:47 17.30603 -62.72686 169 ft 18 kts 223°
2026-04-28 05:47 17.30547 -62.72745 166 ft 9 kts 271°
2026-04-28 05:47 17.30585 -62.72733 168 ft 9 kts 73°
2026-04-28 05:48 17.30643 -62.72620 170 ft 34 kts 56°
2026-04-28 05:48 17.30907 -62.72200 176 ft 102 kts 56°
2026-04-28 05:48 17.31361 -62.71464 419 ft 133 kts 57°
2026-04-28 05:48 17.31883 -62.70587 909 ft 151 kts 57°
2026-04-28 05:49 17.32493 -62.69676 1518 ft 160 kts 56°
2026-04-28 05:49 17.33118 -62.68699 2150 ft 167 kts 56°
2026-04-28 05:49 17.33765 -62.67675 2782 ft 173 kts 57°
2026-04-28 05:49 17.34388 -62.66584 3414 ft 178 kts 60°
2026-04-28 05:50 17.34980 -62.65463 4035 ft 181 kts 61°
2026-04-28 05:50 17.35592 -62.64302 4665 ft 184 kts 61°
2026-04-28 05:50 17.36211 -62.63135 5290 ft 186 kts 59°
2026-04-28 05:50 17.36636 -62.61876 5911 ft 187 kts 76°
2026-04-28 05:51 17.36755 -62.60536 6532 ft 190 kts 92°
2026-04-28 05:51 17.36594 -62.59151 7166 ft 193 kts 99°
2026-04-28 05:51 17.36332 -62.57779 7791 ft 195 kts 102°
2026-04-28 05:51 17.36045 -62.56416 8410 ft 196 kts 102°
2026-04-28 05:52 17.35746 -62.55025 9039 ft 196 kts 102°
2026-04-28 05:52 17.35450 -62.53650 9661 ft 195 kts 102°
2026-04-28 05:52 17.35155 -62.52279 10284 ft 194 kts 102°
2026-04-28 05:52 17.34865 -62.50931 10901 ft 192 kts 102°
2026-04-28 05:53 17.34573 -62.49581 11526 ft 189 kts 103°
2026-04-28 05:53 17.33927 -62.48431 12142 ft 189 kts 134°
2026-04-28 05:53 17.32838 -62.47644 12775 ft 195 kts 154°
2026-04-28 05:53 17.31566 -62.47121 13405 ft 201 kts 161°
2026-04-28 05:54 17.30233 -62.46678 14032 ft 205 kts 162°
2026-04-28 05:54 17.28869 -62.46246 14657 ft 209 kts 163°
2026-04-28 05:54 17.27488 -62.45811 15279 ft 212 kts 163°
2026-04-28 05:54 17.26071 -62.45365 15910 ft 213 kts 163°
2026-04-28 05:55 17.24665 -62.44923 16531 ft 214 kts 163°
2026-04-28 05:55 17.23251 -62.44478 17154 ft 214 kts 163°
2026-04-28 05:55 17.21797 -62.44020 17598 ft 223 kts 163°
2026-04-28 05:55 17.20304 -62.43532 17977 ft 228 kts 161°
2026-04-28 05:56 17.18792 -62.43008 18355 ft 232 kts 161°
2026-04-28 05:56 17.17269 -62.42477 18728 ft 235 kts 161°
2026-04-28 05:56 17.15769 -62.41954 19091 ft 238 kts 161°
2026-04-28 05:56 17.14192 -62.41404 19468 ft 240 kts 161°
2026-04-28 05:57 17.12618 -62.40855 19818 ft 243 kts 161°
2026-04-28 05:57 17.11017 -62.40296 20143 ft 246 kts 161°
2026-04-28 05:57 17.09386 -62.39727 20470 ft 249 kts 161°
2026-04-28 05:57 17.07746 -62.39155 20795 ft 251 kts 161°
2026-04-28 05:58 17.06092 -62.38579 21121 ft 252 kts 161°
2026-04-28 05:58 17.04424 -62.37997 21447 ft 253 kts 161°
2026-04-28 05:58 17.02756 -62.37416 21772 ft 254 kts 161°
2026-04-28 05:58 17.01096 -62.36838 22094 ft 255 kts 161°
2026-04-28 05:59 16.99421 -62.36254 22419 ft 255 kts 161°
2026-04-28 05:59 16.97747 -62.35672 22743 ft 255 kts 161°
2026-04-28 05:59 16.96105 -62.34981 23069 ft 254 kts 154°
2026-04-28 05:59 16.94514 -62.34143 23357 ft 256 kts 153°
2026-04-28 06:00 16.92957 -62.33289 23604 ft 258 kts 152°
2026-04-28 06:00 16.91347 -62.32387 23859 ft 260 kts 152°
2026-04-28 06:00 16.89768 -62.31495 24108 ft 261 kts 151°
2026-04-28 06:00 16.88177 -62.30594 24357 ft 263 kts 151°
2026-04-28 06:01 16.86554 -62.29673 24610 ft 263 kts 151°
2026-04-28 06:01 16.84945 -62.28761 24860 ft 264 kts 151°
2026-04-28 06:01 16.83338 -62.27849 25110 ft 264 kts 151°
2026-04-28 06:01 16.81734 -62.26940 25358 ft 264 kts 151°
2026-04-28 06:02 16.80104 -62.26015 25610 ft 264 kts 151°
2026-04-28 06:02 16.78501 -62.25106 25858 ft 264 kts 151°
2026-04-28 06:02 16.76885 -62.24191 26109 ft 264 kts 151°
2026-04-28 06:02 16.75277 -62.23280 26358 ft 263 kts 151°
2026-04-28 06:03 16.73662 -62.22364 26609 ft 263 kts 151°
2026-04-28 06:03 16.72064 -62.21459 26857 ft 262 kts 151°
2026-04-28 06:03 16.70464 -62.20554 27107 ft 262 kts 151°
2026-04-28 06:03 16.68879 -62.19656 27355 ft 261 kts 151°
2026-04-28 06:04 16.67294 -62.18758 27603 ft 260 kts 151°
2026-04-28 06:04 16.65708 -62.17860 27853 ft 259 kts 151°
2026-04-28 06:04 16.64121 -62.16962 27984 ft 263 kts 151°
2026-04-28 06:04 16.62499 -62.16045 28000 ft 271 kts 151°
2026-04-28 06:05 16.60824 -62.15097 28002 ft 278 kts 151°
2026-04-28 06:05 16.59111 -62.14128 28002 ft 284 kts 151°
2026-04-28 06:05 16.57352 -62.13133 28001 ft 290 kts 151°
2026-04-28 06:05 16.55580 -62.12131 28001 ft 294 kts 151°
2026-04-28 06:06 16.53769 -62.11108 28000 ft 294 kts 151°
2026-04-28 06:06 16.51994 -62.10104 28000 ft 294 kts 151°
2026-04-28 06:06 16.50196 -62.09088 27999 ft 294 kts 151°
2026-04-28 06:06 16.48403 -62.08075 27999 ft 294 kts 151°
2026-04-28 06:07 16.46611 -62.07063 27999 ft 294 kts 151°
2026-04-28 06:07 16.44819 -62.06051 28136 ft 289 kts 151°
2026-04-28 06:07 16.43041 -62.05047 28049 ft 293 kts 151°
2026-04-28 06:07 16.41243 -62.04032 28042 ft 294 kts 151°
2026-04-28 06:08 16.39459 -62.03026 28041 ft 294 kts 151°
2026-04-28 06:08 16.37674 -62.02018 28041 ft 294 kts 151°
2026-04-28 06:08 16.35879 -62.01006 28041 ft 293 kts 151°
2026-04-28 06:08 16.34101 -62.00003 28041 ft 293 kts 151°
2026-04-28 06:09 16.32299 -61.98987 28041 ft 292 kts 151°
2026-04-28 06:09 16.30519 -61.97984 28041 ft 292 kts 151°
2026-04-28 06:09 16.28736 -61.96979 28041 ft 292 kts 151°
2026-04-28 06:09 16.26969 -61.95984 28041 ft 292 kts 151°
2026-04-28 06:10 16.25177 -61.94974 28041 ft 292 kts 151°
2026-04-28 06:10 16.23407 -61.93977 28041 ft 292 kts 151°
2026-04-28 06:10 16.21615 -61.92968 28041 ft 292 kts 151°
2026-04-28 06:10 16.19840 -61.91968 28041 ft 293 kts 151°
2026-04-28 06:11 16.18039 -61.90954 28041 ft 293 kts 151°
2026-04-28 06:11 16.16260 -61.89953 28041 ft 293 kts 151°
2026-04-28 06:11 16.14467 -61.88945 28041 ft 294 kts 151°
2026-04-28 06:11 16.12666 -61.87931 28041 ft 294 kts 151°
2026-04-28 06:12 16.10882 -61.86928 28041 ft 294 kts 151°
2026-04-28 06:12 16.09083 -61.85916 28041 ft 294 kts 151°
2026-04-28 06:12 16.07286 -61.84905 28041 ft 294 kts 151°
2026-04-28 06:12 16.05500 -61.83902 28041 ft 294 kts 151°
2026-04-28 06:13 16.03706 -61.82894 28041 ft 295 kts 151°
2026-04-28 06:13 16.01895 -61.81876 28041 ft 295 kts 151°
2026-04-28 06:13 16.00107 -61.80872 28041 ft 295 kts 151°
2026-04-28 06:13 15.98320 -61.79868 28041 ft 295 kts 151°
2026-04-28 06:14 15.96506 -61.78850 28041 ft 295 kts 151°
2026-04-28 06:14 15.94717 -61.77845 28041 ft 295 kts 151°
2026-04-28 06:14 15.92897 -61.76823 28041 ft 295 kts 151°
2026-04-28 06:14 15.91119 -61.75826 28041 ft 295 kts 151°
2026-04-28 06:15 15.89314 -61.74813 28041 ft 295 kts 151°
2026-04-28 06:15 15.87516 -61.73806 28041 ft 295 kts 151°
2026-04-28 06:15 15.85705 -61.72790 28041 ft 295 kts 151°
2026-04-28 06:15 15.83899 -61.71778 28041 ft 295 kts 151°
2026-04-28 06:16 15.82105 -61.70772 28041 ft 295 kts 151°
2026-04-28 06:16 15.80302 -61.69761 28041 ft 295 kts 151°
2026-04-28 06:16 15.78500 -61.68751 28041 ft 295 kts 151°
2026-04-28 06:16 15.76709 -61.67748 28041 ft 295 kts 151°
2026-04-28 06:17 15.74888 -61.66728 28041 ft 295 kts 151°
2026-04-28 06:17 15.73109 -61.65732 28041 ft 295 kts 151°
2026-04-28 06:17 15.71304 -61.64722 28041 ft 295 kts 151°
2026-04-28 06:18 15.67697 -61.62703 28041 ft 295 kts 151°
2026-04-28 06:18 15.65888 -61.61691 28041 ft 295 kts 151°
2026-04-28 06:18 15.64092 -61.60686 28041 ft 295 kts 151°
2026-04-28 06:18 15.62292 -61.59679 28041 ft 295 kts 151°
2026-04-28 06:19 15.60491 -61.58672 28041 ft 295 kts 151°
2026-04-28 06:19 15.58686 -61.57663 28041 ft 295 kts 151°
2026-04-28 06:19 15.56885 -61.56656 28041 ft 295 kts 151°
2026-04-28 06:19 15.55072 -61.55643 28041 ft 295 kts 151°
2026-04-28 06:20 15.53263 -61.54632 28041 ft 295 kts 151°
2026-04-28 06:20 15.51462 -61.53625 28041 ft 295 kts 151°
2026-04-28 06:20 15.49669 -61.52624 28041 ft 295 kts 151°
2026-04-28 06:20 15.47855 -61.51611 28041 ft 295 kts 151°
2026-04-28 06:21 15.46053 -61.50605 28041 ft 295 kts 151°
2026-04-28 06:21 15.44255 -61.49601 28041 ft 295 kts 151°
2026-04-28 06:21 15.42441 -61.48589 28041 ft 296 kts 151°
2026-04-28 06:21 15.40642 -61.47585 28041 ft 296 kts 151°
2026-04-28 06:22 15.38819 -61.46568 28041 ft 296 kts 151°
2026-04-28 06:22 15.37041 -61.45576 28041 ft 296 kts 151°
2026-04-28 06:22 15.35220 -61.44560 28041 ft 296 kts 151°
2026-04-28 06:22 15.33417 -61.43555 28041 ft 296 kts 151°
2026-04-28 06:23 15.31598 -61.42541 28041 ft 296 kts 151°
2026-04-28 06:23 15.29811 -61.41545 28041 ft 296 kts 151°
2026-04-28 06:23 15.27999 -61.40536 28041 ft 296 kts 151°
2026-04-28 06:23 15.26192 -61.39529 28041 ft 296 kts 151°
2026-04-28 06:24 15.24384 -61.38522 28041 ft 296 kts 151°
2026-04-28 06:24 15.22584 -61.37519 28041 ft 296 kts 151°
2026-04-28 06:24 15.20784 -61.36517 28041 ft 296 kts 151°
2026-04-28 06:24 15.18960 -61.35502 28041 ft 296 kts 151°
2026-04-28 06:25 15.17156 -61.34497 28041 ft 296 kts 152°
2026-04-28 06:25 15.15344 -61.33490 28041 ft 296 kts 152°
2026-04-28 06:25 15.13539 -61.32486 28041 ft 296 kts 152°
2026-04-28 06:25 15.11738 -61.31484 28041 ft 296 kts 152°
2026-04-28 06:26 15.09934 -61.30480 28041 ft 296 kts 152°
2026-04-28 06:26 15.08121 -61.29472 28041 ft 296 kts 152°
2026-04-28 06:26 15.06307 -61.28464 28041 ft 296 kts 152°
2026-04-28 06:26 15.04510 -61.27465 28041 ft 296 kts 152°
2026-04-28 06:27 15.02713 -61.26467 28041 ft 296 kts 152°
2026-04-28 06:27 15.00899 -61.25458 28041 ft 296 kts 152°
2026-04-28 06:27 14.99092 -61.24455 28041 ft 296 kts 152°
2026-04-28 06:27 14.97278 -61.23447 28041 ft 296 kts 152°
2026-04-28 06:28 14.95463 -61.22439 28041 ft 296 kts 152°
2026-04-28 06:28 14.93664 -61.21441 28041 ft 296 kts 152°
2026-04-28 06:28 14.91854 -61.20436 28041 ft 296 kts 152°
2026-04-28 06:28 14.90034 -61.19426 28041 ft 296 kts 152°
2026-04-28 06:29 14.88225 -61.18422 28041 ft 296 kts 152°
2026-04-28 06:29 14.86430 -61.17426 28041 ft 296 kts 152°
2026-04-28 06:29 14.84606 -61.16414 28041 ft 296 kts 152°
2026-04-28 06:29 14.82817 -61.15422 28041 ft 296 kts 152°
2026-04-28 06:30 14.81005 -61.14417 28041 ft 296 kts 152°
2026-04-28 06:30 14.79196 -61.13415 28041 ft 296 kts 152°
2026-04-28 06:30 14.77377 -61.12407 28041 ft 296 kts 152°
2026-04-28 06:30 14.75574 -61.11407 28041 ft 296 kts 152°
2026-04-28 06:31 14.73757 -61.10401 28041 ft 296 kts 152°
2026-04-28 06:31 14.71948 -61.09399 28041 ft 296 kts 152°
2026-04-28 06:31 14.70147 -61.08402 28041 ft 296 kts 152°
2026-04-28 06:31 14.68330 -61.07396 28041 ft 296 kts 152°
2026-04-28 06:32 14.66526 -61.06397 28041 ft 296 kts 152°
2026-04-28 06:32 14.64702 -61.05387 28041 ft 296 kts 152°
2026-04-28 06:32 14.62893 -61.04387 28041 ft 296 kts 152°
2026-04-28 06:32 14.61077 -61.03382 28041 ft 296 kts 152°
2026-04-28 06:33 14.59239 -61.02464 28038 ft 296 kts 159°
2026-04-28 06:33 14.57319 -61.01709 28041 ft 296 kts 160°
2026-04-28 06:33 14.55387 -61.00994 28041 ft 296 kts 160°
2026-04-28 06:33 14.53441 -61.00296 28041 ft 296 kts 161°
2026-04-28 06:34 14.51513 -60.99613 28041 ft 296 kts 161°
2026-04-28 06:34 14.49563 -60.98925 28041 ft 296 kts 161°
2026-04-28 06:34 14.47604 -60.98235 28041 ft 296 kts 161°
2026-04-28 06:34 14.45662 -60.97551 28041 ft 296 kts 161°
2026-04-28 06:35 14.43715 -60.96865 28041 ft 296 kts 161°
2026-04-28 06:35 14.41790 -60.96188 28041 ft 296 kts 161°
2026-04-28 06:35 14.39829 -60.95497 28041 ft 296 kts 161°
2026-04-28 06:35 14.37881 -60.94812 28041 ft 296 kts 161°
2026-04-28 06:36 14.35951 -60.94133 28041 ft 296 kts 161°
2026-04-28 06:36 14.34000 -60.93447 28041 ft 296 kts 161°
2026-04-28 06:36 14.32061 -60.92765 28041 ft 296 kts 161°
2026-04-28 06:36 14.30096 -60.92075 28041 ft 296 kts 161°
2026-04-28 06:37 14.28161 -60.91395 28041 ft 296 kts 161°
2026-04-28 06:37 14.26217 -60.90712 28041 ft 296 kts 161°
2026-04-28 06:37 14.24269 -60.90028 28041 ft 297 kts 161°
2026-04-28 06:37 14.22325 -60.89345 28041 ft 297 kts 161°
2026-04-28 06:38 14.20373 -60.88659 28041 ft 297 kts 161°
2026-04-28 06:38 14.18429 -60.87976 28041 ft 297 kts 161°
2026-04-28 06:38 14.16492 -60.87297 28041 ft 297 kts 161°
2026-04-28 06:38 14.14531 -60.86608 28041 ft 297 kts 161°
2026-04-28 06:39 14.12586 -60.85926 28041 ft 297 kts 161°
2026-04-28 06:39 14.10637 -60.85242 28041 ft 297 kts 161°
2026-04-28 06:39 14.08680 -60.84555 28041 ft 297 kts 161°
2026-04-28 06:39 14.06752 -60.83879 28041 ft 297 kts 161°
2026-04-28 06:40 14.04785 -60.83189 28041 ft 297 kts 161°
2026-04-28 06:40 14.02840 -60.82508 28041 ft 297 kts 161°
2026-04-28 06:40 14.00907 -60.81830 28041 ft 297 kts 161°
2026-04-28 06:40 13.98945 -60.81142 28041 ft 297 kts 161°
2026-04-28 06:41 13.96995 -60.80459 28041 ft 297 kts 161°
2026-04-28 06:41 13.95058 -60.79780 28041 ft 297 kts 161°
2026-04-28 06:41 13.93101 -60.79095 28041 ft 297 kts 161°
2026-04-28 06:41 13.91151 -60.78412 28041 ft 297 kts 161°
2026-04-28 06:42 13.89196 -60.77727 28041 ft 297 kts 161°
2026-04-28 06:42 13.87272 -60.77054 28041 ft 297 kts 161°
2026-04-28 06:42 13.85300 -60.76363 28041 ft 297 kts 161°
2026-04-28 06:42 13.83366 -60.75687 28041 ft 297 kts 161°
2026-04-28 06:43 13.81403 -60.75000 28041 ft 297 kts 161°
2026-04-28 06:43 13.79469 -60.74323 28041 ft 297 kts 161°
2026-04-28 06:43 13.77505 -60.73637 28041 ft 297 kts 161°
2026-04-28 06:43 13.75579 -60.72963 28041 ft 297 kts 161°
2026-04-28 06:44 13.73606 -60.72273 28041 ft 297 kts 161°
2026-04-28 06:44 13.71668 -60.71596 28041 ft 297 kts 161°
2026-04-28 06:44 13.69723 -60.70916 28041 ft 297 kts 161°
2026-04-28 06:44 13.67772 -60.70234 28041 ft 297 kts 161°
2026-04-28 06:45 13.65803 -60.69546 28041 ft 297 kts 161°
2026-04-28 06:45 13.63864 -60.68868 28041 ft 297 kts 161°
2026-04-28 06:45 13.61920 -60.68189 28041 ft 297 kts 161°
2026-04-28 06:45 13.59959 -60.67504 28041 ft 297 kts 161°
2026-04-28 06:46 13.58019 -60.66827 28041 ft 297 kts 161°
2026-04-28 06:46 13.56062 -60.66144 28041 ft 297 kts 161°
2026-04-28 06:46 13.54101 -60.65460 28041 ft 297 kts 161°
2026-04-28 06:46 13.52162 -60.64783 28041 ft 297 kts 161°
2026-04-28 06:47 13.50209 -60.64102 28041 ft 297 kts 161°
2026-04-28 06:47 13.48256 -60.63422 28041 ft 297 kts 161°
2026-04-28 06:47 13.46308 -60.62742 28041 ft 297 kts 161°
2026-04-28 06:47 13.44346 -60.62058 28041 ft 297 kts 161°
2026-04-28 06:48 13.42393 -60.61378 28041 ft 297 kts 161°
2026-04-28 06:48 13.40457 -60.60703 28041 ft 297 kts 161°
2026-04-28 06:48 13.38504 -60.60022 28041 ft 297 kts 161°
2026-04-28 06:48 13.36555 -60.59343 28041 ft 297 kts 161°
2026-04-28 06:49 13.34593 -60.58660 28041 ft 297 kts 161°
2026-04-28 06:49 13.32652 -60.57984 28041 ft 297 kts 161°
2026-04-28 06:49 13.30700 -60.57304 28041 ft 297 kts 161°
2026-04-28 06:49 13.28746 -60.56624 28041 ft 297 kts 161°
2026-04-28 06:50 13.26792 -60.55944 28041 ft 297 kts 161°
2026-04-28 06:50 13.24825 -60.55259 28041 ft 297 kts 161°
2026-04-28 06:50 13.22879 -60.54582 28041 ft 297 kts 161°
2026-04-28 06:50 13.20938 -60.53907 28041 ft 297 kts 161°
2026-04-28 06:51 13.18974 -60.53224 28041 ft 297 kts 161°
2026-04-28 06:51 13.17024 -60.52546 28041 ft 297 kts 161°
2026-04-28 06:51 13.15061 -60.51863 28041 ft 297 kts 161°
2026-04-28 06:51 13.13123 -60.51189 28041 ft 297 kts 161°
2026-04-28 06:52 13.11155 -60.50505 28041 ft 297 kts 161°
2026-04-28 06:52 13.09212 -60.49830 28041 ft 297 kts 161°
2026-04-28 06:52 13.07253 -60.49149 28041 ft 297 kts 161°
2026-04-28 06:52 13.05297 -60.48470 28041 ft 297 kts 161°
2026-04-28 06:53 13.03359 -60.47797 28041 ft 297 kts 161°
2026-04-28 06:53 13.01394 -60.47114 28041 ft 297 kts 161°
2026-04-28 06:53 12.99438 -60.46435 28041 ft 297 kts 161°
2026-04-28 06:53 12.97482 -60.45756 28041 ft 297 kts 161°
2026-04-28 06:54 12.95526 -60.45077 28041 ft 298 kts 161°
2026-04-28 06:54 12.93592 -60.44406 28041 ft 298 kts 161°
2026-04-28 06:54 12.91631 -60.43726 28041 ft 298 kts 161°
2026-04-28 06:54 12.89671 -60.43045 28041 ft 298 kts 161°
2026-04-28 06:55 12.87714 -60.42366 28041 ft 298 kts 161°
2026-04-28 06:55 12.85757 -60.41688 28041 ft 298 kts 161°
2026-04-28 06:55 12.83801 -60.41009 28041 ft 298 kts 161°
2026-04-28 06:55 12.81844 -60.40331 28041 ft 298 kts 161°
2026-04-28 06:56 12.79887 -60.39653 28041 ft 298 kts 161°
2026-04-28 06:56 12.77930 -60.38975 28041 ft 298 kts 161°
2026-04-28 06:56 12.75995 -60.38304 28041 ft 298 kts 161°
2026-04-28 06:56 12.74038 -60.37626 28041 ft 298 kts 161°
2026-04-28 06:57 12.72081 -60.36948 28041 ft 298 kts 161°
2026-04-28 06:57 12.70115 -60.36267 28041 ft 298 kts 161°
2026-04-28 06:57 12.68157 -60.35589 28041 ft 298 kts 161°
2026-04-28 06:57 12.66221 -60.34919 28041 ft 298 kts 161°
2026-04-28 06:58 12.64259 -60.34240 28041 ft 298 kts 161°
2026-04-28 06:58 12.62301 -60.33562 28041 ft 298 kts 161°
2026-04-28 06:58 12.60343 -60.32884 28041 ft 298 kts 161°
2026-04-28 06:58 12.58385 -60.32206 28041 ft 298 kts 161°
2026-04-28 06:59 12.56427 -60.31529 28041 ft 298 kts 161°
2026-04-28 06:59 12.54469 -60.30851 28041 ft 298 kts 161°
2026-04-28 06:59 12.52510 -60.30174 28041 ft 298 kts 161°
2026-04-28 06:59 12.50552 -60.29497 28041 ft 298 kts 161°
2026-04-28 07:00 12.48589 -60.28818 28041 ft 298 kts 161°
2026-04-28 07:00 12.46656 -60.28150 28041 ft 298 kts 161°
2026-04-28 07:00 12.44697 -60.27473 28041 ft 298 kts 161°
2026-04-28 07:00 12.42738 -60.26796 28041 ft 298 kts 161°
2026-04-28 07:01 12.40779 -60.26118 28041 ft 298 kts 161°
2026-04-28 07:01 12.38820 -60.25441 28041 ft 298 kts 161°
2026-04-28 07:01 12.36860 -60.24764 28041 ft 298 kts 161°
2026-04-28 07:01 12.34901 -60.24088 28041 ft 298 kts 161°
2026-04-28 07:02 12.32941 -60.23411 28041 ft 298 kts 161°
2026-04-28 07:02 12.30981 -60.22734 28041 ft 298 kts 161°
2026-04-28 07:02 12.29021 -60.22057 28041 ft 298 kts 161°
2026-04-28 07:02 12.27062 -60.21381 28041 ft 298 kts 161°
2026-04-28 07:03 12.25102 -60.20705 28041 ft 298 kts 161°
2026-04-28 07:03 12.23142 -60.20028 28041 ft 298 kts 161°
2026-04-28 07:03 12.21182 -60.19352 28041 ft 298 kts 161°
2026-04-28 07:03 12.19243 -60.18683 28041 ft 298 kts 161°
2026-04-28 07:04 12.17278 -60.18006 28041 ft 298 kts 161°
2026-04-28 07:04 12.15318 -60.17330 28041 ft 298 kts 161°
2026-04-28 07:04 12.13357 -60.16654 28041 ft 298 kts 161°
2026-04-28 07:04 12.11392 -60.15976 28041 ft 298 kts 161°
2026-04-28 07:05 12.09427 -60.15299 28041 ft 298 kts 161°
2026-04-28 07:05 12.07484 -60.14629 28041 ft 298 kts 161°
2026-04-28 07:05 12.05527 -60.13955 28041 ft 298 kts 161°
2026-04-28 07:05 12.03571 -60.13281 28041 ft 298 kts 161°
2026-04-28 07:06 12.01601 -60.12603 28041 ft 298 kts 161°
2026-04-28 07:06 11.99653 -60.11932 28041 ft 298 kts 161°
2026-04-28 07:06 11.97673 -60.11250 28041 ft 298 kts 161°
2026-04-28 07:06 11.95712 -60.10574 28041 ft 298 kts 161°
2026-04-28 07:07 11.93776 -60.09907 28041 ft 298 kts 161°
2026-04-28 07:07 11.91810 -60.09231 28041 ft 298 kts 161°
2026-04-28 07:07 11.89840 -60.08553 28041 ft 298 kts 161°
2026-04-28 07:07 11.87891 -60.07882 28041 ft 298 kts 161°
2026-04-28 07:08 11.85920 -60.07204 28041 ft 298 kts 161°
2026-04-28 07:08 11.83976 -60.06535 28041 ft 298 kts 161°
2026-04-28 07:08 11.81996 -60.05854 28041 ft 298 kts 161°
2026-04-28 07:08 11.80052 -60.05186 28041 ft 298 kts 161°
2026-04-28 07:09 11.78093 -60.04512 28041 ft 298 kts 161°
2026-04-28 07:09 11.76114 -60.03832 28041 ft 298 kts 161°
2026-04-28 07:09 11.74163 -60.03161 28041 ft 298 kts 161°
2026-04-28 07:09 11.72192 -60.02484 28041 ft 298 kts 161°
2026-04-28 07:10 11.70251 -60.01817 28041 ft 298 kts 161°
2026-04-28 07:10 11.68271 -60.01136 28041 ft 298 kts 161°
2026-04-28 07:10 11.66325 -60.00468 28041 ft 298 kts 161°
2026-04-28 07:10 11.64362 -59.99793 28041 ft 298 kts 161°
2026-04-28 07:11 11.62394 -59.99118 28041 ft 298 kts 161°
2026-04-28 07:11 11.60431 -59.98444 28041 ft 298 kts 161°
2026-04-28 07:11 11.58459 -59.97767 28041 ft 298 kts 161°
2026-04-28 07:11 11.56521 -59.97101 28041 ft 298 kts 161°
2026-04-28 07:12 11.54549 -59.96424 28041 ft 298 kts 161°
2026-04-28 07:12 11.52581 -59.95748 28041 ft 298 kts 161°
2026-04-28 07:12 11.50635 -59.95081 28041 ft 298 kts 161°
2026-04-28 07:12 11.48658 -59.94403 28041 ft 299 kts 161°
2026-04-28 07:13 11.46712 -59.93735 28041 ft 299 kts 161°
2026-04-28 07:13 11.44744 -59.93059 28041 ft 299 kts 161°
2026-04-28 07:13 11.42779 -59.92386 28041 ft 299 kts 161°
2026-04-28 07:13 11.40815 -59.91713 28041 ft 299 kts 161°
2026-04-28 07:14 11.38851 -59.91039 28041 ft 299 kts 161°
2026-04-28 07:14 11.36887 -59.90366 28041 ft 299 kts 161°
2026-04-28 07:14 11.34922 -59.89692 28041 ft 299 kts 161°
2026-04-28 07:14 11.32958 -59.89019 28041 ft 299 kts 161°
2026-04-28 07:15 11.30993 -59.88346 28041 ft 299 kts 161°
2026-04-28 07:15 11.29028 -59.87673 28041 ft 299 kts 161°
2026-04-28 07:15 11.27063 -59.87000 28041 ft 299 kts 161°
2026-04-28 07:15 11.25120 -59.86335 28041 ft 299 kts 161°
2026-04-28 07:16 11.23155 -59.85662 28041 ft 299 kts 161°
2026-04-28 07:16 11.21189 -59.84989 28041 ft 299 kts 161°
2026-04-28 07:16 11.19224 -59.84317 28041 ft 299 kts 161°
2026-04-28 07:16 11.17254 -59.83643 28041 ft 299 kts 161°
2026-04-28 07:17 11.15288 -59.82970 28041 ft 299 kts 161°
2026-04-28 07:17 11.13318 -59.82296 28041 ft 299 kts 161°
2026-04-28 07:17 11.11352 -59.81623 28041 ft 299 kts 161°
2026-04-28 07:17 11.09386 -59.80951 28041 ft 299 kts 161°
2026-04-28 07:18 11.07447 -59.80287 28041 ft 299 kts 161°
2026-04-28 07:18 11.05480 -59.79614 28041 ft 299 kts 161°
2026-04-28 07:18 11.03514 -59.78941 28041 ft 299 kts 161°
2026-04-28 07:18 11.01547 -59.78269 28041 ft 299 kts 161°
2026-04-28 07:19 10.99581 -59.77597 28041 ft 299 kts 161°
2026-04-28 07:19 10.97605 -59.76922 28041 ft 299 kts 161°
2026-04-28 07:19 10.95637 -59.76250 28041 ft 299 kts 161°
2026-04-28 07:19 10.93670 -59.75577 28041 ft 299 kts 161°
2026-04-28 07:20 10.91704 -59.74906 28041 ft 299 kts 161°
2026-04-28 07:20 10.89737 -59.74234 28041 ft 299 kts 161°
2026-04-28 07:20 10.87796 -59.73571 28041 ft 299 kts 161°
2026-04-28 07:20 10.85824 -59.72897 28041 ft 299 kts 161°
2026-04-28 07:21 10.83857 -59.72225 28041 ft 299 kts 161°
2026-04-28 07:21 10.81889 -59.71553 28041 ft 299 kts 161°
2026-04-28 07:21 10.79922 -59.70882 28041 ft 299 kts 161°
2026-04-28 07:22 10.75986 -59.69539 28041 ft 299 kts 161°
2026-04-28 07:22 10.74018 -59.68867 28041 ft 299 kts 161°
2026-04-28 07:22 10.72049 -59.68195 28041 ft 299 kts 161°
2026-04-28 07:22 10.70077 -59.67522 28041 ft 299 kts 161°
2026-04-28 07:23 10.68134 -59.66860 28041 ft 299 kts 161°
2026-04-28 07:23 10.66166 -59.66188 28041 ft 299 kts 161°
2026-04-28 07:23 10.64193 -59.65516 28041 ft 299 kts 161°
2026-04-28 07:23 10.62225 -59.64845 28041 ft 299 kts 161°
2026-04-28 07:24 10.60256 -59.64174 28041 ft 299 kts 161°
2026-04-28 07:24 10.58288 -59.63503 28041 ft 299 kts 161°
2026-04-28 07:24 10.56317 -59.62832 28041 ft 299 kts 161°
2026-04-28 07:24 10.54349 -59.62161 28041 ft 299 kts 161°
2026-04-28 07:25 10.52379 -59.61489 28041 ft 299 kts 161°
2026-04-28 07:25 10.50410 -59.60818 28041 ft 299 kts 161°
2026-04-28 07:25 10.48441 -59.60148 28041 ft 299 kts 161°
2026-04-28 07:25 10.46472 -59.59477 28041 ft 299 kts 161°
2026-04-28 07:26 10.44502 -59.58806 28041 ft 299 kts 161°
2026-04-28 07:26 10.42559 -59.58144 28041 ft 299 kts 161°
2026-04-28 07:26 10.40589 -59.57473 28041 ft 299 kts 161°
2026-04-28 07:26 10.38620 -59.56803 28041 ft 299 kts 161°
2026-04-28 07:27 10.36650 -59.56132 28041 ft 299 kts 161°
2026-04-28 07:27 10.34676 -59.55461 28041 ft 299 kts 161°
2026-04-28 07:27 10.32706 -59.54790 28041 ft 299 kts 161°
2026-04-28 07:27 10.30736 -59.54120 28041 ft 299 kts 161°
2026-04-28 07:28 10.28765 -59.53450 28041 ft 299 kts 161°
2026-04-28 07:28 10.26795 -59.52780 28041 ft 299 kts 161°
2026-04-28 07:28 10.24825 -59.52110 28041 ft 299 kts 161°
2026-04-28 07:28 10.22854 -59.51440 28041 ft 299 kts 161°
2026-04-28 07:29 10.20883 -59.50769 28041 ft 299 kts 161°
2026-04-28 07:29 10.18934 -59.50107 28041 ft 299 kts 161°
2026-04-28 07:29 10.16963 -59.49437 28041 ft 299 kts 161°
2026-04-28 07:29 10.14992 -59.48768 28041 ft 299 kts 161°
2026-04-28 07:30 10.13021 -59.48098 28041 ft 299 kts 161°
2026-04-28 07:30 10.11050 -59.47428 28041 ft 299 kts 161°
2026-04-28 07:30 10.09074 -59.46757 28041 ft 299 kts 161°
2026-04-28 07:30 10.07103 -59.46087 28041 ft 300 kts 161°
2026-04-28 07:31 10.05152 -59.45424 28041 ft 300 kts 161°
2026-04-28 07:31 10.03180 -59.44755 28041 ft 300 kts 161°
2026-04-28 07:31 10.01208 -59.44085 28041 ft 300 kts 161°
2026-04-28 07:31 9.99231 -59.43414 28041 ft 300 kts 161°
2026-04-28 07:32 9.97259 -59.42744 28041 ft 300 kts 161°
2026-04-28 07:32 9.95287 -59.42075 28041 ft 300 kts 161°
2026-04-28 07:32 9.93312 -59.41405 28041 ft 300 kts 161°
2026-04-28 07:32 9.91340 -59.40736 28041 ft 300 kts 161°
2026-04-28 07:33 9.89368 -59.40067 28041 ft 300 kts 161°
2026-04-28 07:33 9.87395 -59.39398 28041 ft 300 kts 161°
2026-04-28 07:33 9.85443 -59.38736 28041 ft 300 kts 161°
2026-04-28 07:33 9.83470 -59.38067 28041 ft 300 kts 161°
2026-04-28 07:34 9.81498 -59.37398 28041 ft 300 kts 161°
2026-04-28 07:34 9.79522 -59.36729 28041 ft 300 kts 161°
2026-04-28 07:34 9.77550 -59.36060 28041 ft 300 kts 161°
2026-04-28 07:34 9.75577 -59.35391 28041 ft 300 kts 161°
2026-04-28 07:35 9.73604 -59.34722 28041 ft 300 kts 161°
2026-04-28 07:35 9.71631 -59.34053 28041 ft 300 kts 161°
2026-04-28 07:35 9.69657 -59.33385 28041 ft 300 kts 161°
2026-04-28 07:35 9.67684 -59.32716 28041 ft 300 kts 161°
2026-04-28 07:36 9.65733 -59.32054 28041 ft 300 kts 161°
2026-04-28 07:36 9.63755 -59.31384 28041 ft 300 kts 161°
2026-04-28 07:36 9.61782 -59.30715 28041 ft 300 kts 161°
2026-04-28 07:36 9.59808 -59.30047 28041 ft 300 kts 161°
2026-04-28 07:37 9.57835 -59.29378 28041 ft 300 kts 161°
2026-04-28 07:37 9.55856 -59.28709 28041 ft 300 kts 161°
2026-04-28 07:37 9.53880 -59.28040 28041 ft 300 kts 161°
2026-04-28 07:37 9.51928 -59.27379 28041 ft 300 kts 161°
2026-04-28 07:38 9.49954 -59.26711 28041 ft 300 kts 161°
2026-04-28 07:38 9.47979 -59.26043 28041 ft 300 kts 161°
2026-04-28 07:38 9.45999 -59.25372 28041 ft 300 kts 161°
2026-04-28 07:38 9.44025 -59.24705 28041 ft 300 kts 161°
2026-04-28 07:39 9.42050 -59.24037 28041 ft 300 kts 161°
2026-04-28 07:39 9.40076 -59.23369 28041 ft 300 kts 161°
2026-04-28 07:39 9.38101 -59.22701 28041 ft 300 kts 161°
2026-04-28 07:39 9.36126 -59.22033 28041 ft 300 kts 161°
2026-04-28 07:40 9.34173 -59.21373 28041 ft 300 kts 161°
2026-04-28 07:40 9.32198 -59.20705 28041 ft 300 kts 161°
2026-04-28 07:40 9.30223 -59.20038 28041 ft 300 kts 161°
2026-04-28 07:40 9.28248 -59.19370 28041 ft 300 kts 161°
2026-04-28 07:41 9.26272 -59.18702 28041 ft 300 kts 161°
2026-04-28 07:41 9.24297 -59.18035 28041 ft 300 kts 161°
2026-04-28 07:41 9.22322 -59.17367 28041 ft 300 kts 161°
2026-04-28 07:41 9.20346 -59.16700 28041 ft 300 kts 161°
2026-04-28 07:42 9.18366 -59.16031 28041 ft 300 kts 161°
2026-04-28 07:42 9.16412 -59.15371 28041 ft 300 kts 161°
2026-04-28 07:42 9.14436 -59.14704 28041 ft 300 kts 161°
2026-04-28 07:42 9.12452 -59.14034 28041 ft 300 kts 161°
2026-04-28 07:43 9.10467 -59.13364 28041 ft 300 kts 161°
2026-04-28 07:43 9.08517 -59.12706 28041 ft 300 kts 161°
2026-04-28 07:43 9.06532 -59.12036 28041 ft 300 kts 161°
2026-04-28 07:43 9.04560 -59.11371 28041 ft 300 kts 161°
2026-04-28 07:44 9.02570 -59.10699 28041 ft 300 kts 161°
2026-04-28 07:44 9.00615 -59.10040 28041 ft 300 kts 161°
2026-04-28 07:44 8.98636 -59.09372 28041 ft 300 kts 161°
2026-04-28 07:44 8.96655 -59.08704 28041 ft 300 kts 161°
2026-04-28 07:45 8.94674 -59.08035 28041 ft 300 kts 161°
2026-04-28 07:45 8.92710 -59.07373 28041 ft 300 kts 161°
2026-04-28 07:45 8.90724 -59.06703 28041 ft 300 kts 161°
2026-04-28 07:45 8.88764 -59.06042 28041 ft 300 kts 161°
2026-04-28 07:46 8.86774 -59.05370 28041 ft 300 kts 161°
2026-04-28 07:46 8.84796 -59.04703 28041 ft 300 kts 161°
2026-04-28 07:46 8.82815 -59.04034 28041 ft 300 kts 161°
2026-04-28 07:46 8.80846 -59.03371 28041 ft 300 kts 161°
2026-04-28 07:47 8.78868 -59.02703 28041 ft 300 kts 161°
2026-04-28 07:47 8.76886 -59.02035 28041 ft 300 kts 161°
2026-04-28 07:47 8.74926 -59.01374 28041 ft 300 kts 161°
2026-04-28 07:47 8.72940 -59.00705 28041 ft 300 kts 161°
2026-04-28 07:48 8.70983 -59.00045 28041 ft 300 kts 161°
2026-04-28 07:48 8.69001 -58.99377 28041 ft 300 kts 161°
2026-04-28 07:48 8.67023 -58.98711 28041 ft 300 kts 161°
2026-04-28 07:48 8.65036 -58.98041 28041 ft 300 kts 161°
2026-04-28 07:49 8.63058 -58.97374 28041 ft 300 kts 161°
2026-04-28 07:49 8.61079 -58.96708 28041 ft 300 kts 161°
2026-04-28 07:49 8.59101 -58.96041 28041 ft 300 kts 161°
2026-04-28 07:49 8.57122 -58.95375 28041 ft 300 kts 161°
2026-04-28 07:50 8.55166 -58.94716 28041 ft 300 kts 161°
2026-04-28 07:50 8.53187 -58.94050 28041 ft 300 kts 161°
2026-04-28 07:50 8.51209 -58.93384 28041 ft 300 kts 161°
2026-04-28 07:50 8.49230 -58.92718 28041 ft 301 kts 161°
2026-04-28 07:51 8.45263 -58.91383 28041 ft 301 kts 161°
2026-04-28 07:51 8.41331 -58.90060 28041 ft 301 kts 161°
2026-04-28 07:52 8.37371 -58.88729 28041 ft 301 kts 161°
2026-04-28 07:52 8.33411 -58.87398 28041 ft 301 kts 161°
2026-04-28 07:53 8.29452 -58.86066 28041 ft 301 kts 161°
2026-04-28 07:53 8.25491 -58.84736 28041 ft 301 kts 161°
2026-04-28 07:54 8.21531 -58.83405 28041 ft 301 kts 161°
2026-04-28 07:54 8.17569 -58.82074 28041 ft 301 kts 161°
2026-04-28 07:55 8.13630 -58.80751 28041 ft 301 kts 161°
2026-04-28 07:55 8.09651 -58.79415 28041 ft 301 kts 161°
2026-04-28 07:56 8.05697 -58.78088 28041 ft 301 kts 161°
2026-04-28 07:56 8.01753 -58.76763 28041 ft 301 kts 161°
2026-04-28 07:57 7.97785 -58.75432 28041 ft 301 kts 161°
2026-04-28 07:57 7.93813 -58.74100 28041 ft 301 kts 161°
2026-04-28 07:58 7.89854 -58.72772 28041 ft 301 kts 161°
2026-04-28 07:58 7.85895 -58.71444 28041 ft 301 kts 161°
2026-04-28 07:59 7.81953 -58.70123 28041 ft 301 kts 161°
2026-04-28 07:59 7.77993 -58.68795 28041 ft 301 kts 161°
2026-04-28 08:00 7.74020 -58.67463 28041 ft 301 kts 161°
2026-04-28 08:00 7.70050 -58.66133 28041 ft 301 kts 161°
2026-04-28 08:01 7.66096 -58.64810 28041 ft 301 kts 161°
2026-04-28 08:01 7.62125 -58.63482 27854 ft 308 kts 161°
2026-04-28 08:02 7.60116 -58.62810 27481 ft 306 kts 161°
2026-04-28 08:02 7.58110 -58.62140 27105 ft 304 kts 161°
2026-04-28 08:02 7.56107 -58.61468 26726 ft 300 kts 161°
2026-04-28 08:02 7.54163 -58.60816 26353 ft 297 kts 161°
2026-04-28 08:03 7.52210 -58.60166 25976 ft 294 kts 161°
2026-04-28 08:03 7.50285 -58.59524 25601 ft 292 kts 161°
2026-04-28 08:03 7.48379 -58.58888 25228 ft 291 kts 161°
2026-04-28 08:03 7.46462 -58.58248 24851 ft 289 kts 161°
2026-04-28 08:04 7.44556 -58.57612 24475 ft 288 kts 161°
2026-04-28 08:04 7.42665 -58.56981 24101 ft 288 kts 161°
2026-04-28 08:04 7.40775 -58.56348 23680 ft 289 kts 161°
2026-04-28 08:04 7.38886 -58.55717 23186 ft 292 kts 161°
2026-04-28 08:05 7.36959 -58.55074 22686 ft 294 kts 161°
2026-04-28 08:05 7.35008 -58.54422 22182 ft 295 kts 161°
2026-04-28 08:05 7.33089 -58.53782 21688 ft 295 kts 161°
2026-04-28 08:05 7.31123 -58.53125 21183 ft 296 kts 161°
2026-04-28 08:06 7.29200 -58.52484 20688 ft 296 kts 161°
2026-04-28 08:06 7.27256 -58.51834 20188 ft 295 kts 161°
2026-04-28 08:06 7.25311 -58.51185 19686 ft 295 kts 161°
2026-04-28 08:06 7.23388 -58.50544 19190 ft 294 kts 161°
2026-04-28 08:07 7.21455 -58.49898 18690 ft 294 kts 161°
2026-04-28 08:07 7.19523 -58.49254 18189 ft 293 kts 161°
2026-04-28 08:07 7.17596 -58.48611 17687 ft 292 kts 161°
2026-04-28 08:07 7.15688 -58.47974 17190 ft 291 kts 161°
2026-04-28 08:08 7.13767 -58.47333 16688 ft 291 kts 161°
2026-04-28 08:08 7.11855 -58.46695 16187 ft 290 kts 161°
2026-04-28 08:08 7.09958 -58.46062 15688 ft 289 kts 161°
2026-04-28 08:08 7.08043 -58.45423 15184 ft 289 kts 161°
2026-04-28 08:09 7.06159 -58.44795 14687 ft 288 kts 161°
2026-04-28 08:09 7.04272 -58.44167 14190 ft 287 kts 161°
2026-04-28 08:09 7.02389 -58.43540 13691 ft 287 kts 161°
2026-04-28 08:09 7.00541 -58.42925 13187 ft 273 kts 161°
2026-04-28 08:10 6.98770 -58.42335 12683 ft 264 kts 161°
2026-04-28 08:10 6.97062 -58.41766 12183 ft 257 kts 161°
2026-04-28 08:10 6.95384 -58.41208 11681 ft 253 kts 161°
2026-04-28 08:10 6.93730 -58.40688 11177 ft 250 kts 168°
2026-04-28 08:11 6.92028 -58.40579 10675 ft 245 kts 179°
2026-04-28 08:11 6.90335 -58.40548 10169 ft 239 kts 179°
2026-04-28 08:11 6.88718 -58.40516 9672 ft 233 kts 179°
2026-04-28 08:11 6.87120 -58.40482 9169 ft 228 kts 179°
2026-04-28 08:12 6.85551 -58.40447 8669 ft 225 kts 178°
2026-04-28 08:12 6.84005 -58.40412 8171 ft 223 kts 178°
2026-04-28 08:12 6.82470 -58.40377 7672 ft 222 kts 178°
2026-04-28 08:12 6.80945 -58.40342 7174 ft 221 kts 178°
2026-04-28 08:13 6.79406 -58.40307 6668 ft 220 kts 178°
2026-04-28 08:13 6.77890 -58.40273 6169 ft 219 kts 178°
2026-04-28 08:13 6.76384 -58.40239 5697 ft 217 kts 178°
2026-04-28 08:13 6.74923 -58.40206 5420 ft 209 kts 178°
2026-04-28 08:14 6.73472 -58.40173 5170 ft 209 kts 178°
2026-04-28 08:14 6.72039 -58.40140 4999 ft 203 kts 178°
2026-04-28 08:14 6.70643 -58.40109 4873 ft 200 kts 178°
2026-04-28 08:14 6.69264 -58.40078 4747 ft 198 kts 178°
2026-04-28 08:15 6.67884 -58.40046 4620 ft 196 kts 178°
2026-04-28 08:15 6.66538 -58.40016 4496 ft 195 kts 178°
2026-04-28 08:15 6.65168 -58.39984 4369 ft 195 kts 178°
2026-04-28 08:15 6.63829 -58.39954 4245 ft 194 kts 178°
2026-04-28 08:16 6.62475 -58.39923 4119 ft 194 kts 178°
2026-04-28 08:16 6.61132 -58.39893 3995 ft 193 kts 178°
2026-04-28 08:16 6.59790 -58.39862 3915 ft 191 kts 178°
2026-04-28 08:16 6.58479 -58.39833 3864 ft 192 kts 178°
2026-04-28 08:17 6.57123 -58.39802 3817 ft 198 kts 178°
2026-04-28 08:17 6.55729 -58.39771 3769 ft 202 kts 178°
2026-04-28 08:17 6.54319 -58.39738 3721 ft 205 kts 178°
2026-04-28 08:17 6.52876 -58.39706 3671 ft 207 kts 178°
2026-04-28 08:18 6.51431 -58.39673 3622 ft 208 kts 178°
2026-04-28 08:18 6.50003 -58.39640 3572 ft 205 kts 178°
2026-04-28 08:18 6.48600 -58.39609 3519 ft 198 kts 178°
2026-04-28 08:18 6.47245 -58.39578 3466 ft 193 kts 178°
2026-04-28 08:19 6.45915 -58.39548 3414 ft 189 kts 178°
2026-04-28 08:19 6.44620 -58.39519 3362 ft 183 kts 178°
2026-04-28 08:19 6.43366 -58.39491 3310 ft 179 kts 178°
2026-04-28 08:19 6.42120 -58.39462 3257 ft 176 kts 178°
2026-04-28 08:20 6.40918 -58.39435 3207 ft 173 kts 178°
2026-04-28 08:20 6.39713 -58.39408 3155 ft 172 kts 178°
2026-04-28 08:20 6.38529 -58.39381 3105 ft 171 kts 178°
2026-04-28 08:20 6.37359 -58.39218 3050 ft 169 kts 154°
2026-04-28 08:21 6.36620 -58.38361 3000 ft 168 kts 108°
2026-04-28 08:21 6.36709 -58.37213 2950 ft 167 kts 63°
2026-04-28 08:21 6.37543 -58.36485 2900 ft 161 kts 21°
2026-04-28 08:21 6.38585 -58.36107 2851 ft 156 kts 25°
2026-04-28 08:22 6.39464 -58.35567 2843 ft 145 kts 36°
2026-04-28 08:22 6.40222 -58.34970 2767 ft 130 kts 39°
2026-04-28 08:22 6.40899 -58.34359 2730 ft 135 kts 43°
2026-04-28 08:22 6.41549 -58.33689 2756 ft 129 kts 45°
2026-04-28 08:23 6.42135 -58.33084 2709 ft 115 kts 43°
2026-04-28 08:23 6.42707 -58.32522 2567 ft 115 kts 44°
2026-04-28 08:23 6.43275 -58.31953 2295 ft 115 kts 43°
2026-04-28 08:23 6.43842 -58.31404 1981 ft 114 kts 44°
2026-04-28 08:24 6.44414 -58.30849 1538 ft 117 kts 42°
2026-04-28 08:24 6.44991 -58.30306 1126 ft 109 kts 43°
2026-04-28 08:24 6.45500 -58.29786 983 ft 101 kts 45°
2026-04-28 08:24 6.45985 -58.29281 873 ft 99 kts 43°
2026-04-28 08:25 6.46472 -58.28805 773 ft 97 kts 43°
2026-04-28 08:25 6.46959 -58.28316 647 ft 98 kts 45°
2026-04-28 08:25 6.47436 -58.27849 589 ft 96 kts 45°
2026-04-28 08:26 6.48367 -58.26904 333 ft 90 kts 45°
2026-04-28 08:26 6.48809 -58.26464 226 ft 87 kts 44°
2026-04-28 08:26 6.49240 -58.26038 134 ft 87 kts 44°
2026-04-28 08:26 6.49664 -58.25607 109 ft 81 kts 43°
2026-04-28 08:27 6.50017 -58.25261 100 ft 63 kts 46°
2026-04-28 08:27 6.50265 -58.25011 100 ft 16 kts 47°
2026-04-28 08:27 6.50313 -58.24964 100 ft 8 kts 307°
2026-04-28 08:27 6.50279 -58.24997 100 ft 6 kts 210°
2026-04-28 08:28 6.50255 -58.25025 100 ft 4 kts 260°
2026-04-28 08:28 6.50271 -58.25048 100 ft 6 kts 327°
2026-04-28 08:28 6.50309 -58.25077 100 ft 2 kts 309°
2026-04-28 08:28 6.50316 -58.25109 100 ft 6 kts 263°
2026-04-28 08:29 6.50352 -58.25150 100 ft 10 kts 255°
2026-04-28 08:29 6.50291 -58.25212 100 ft 14 kts 222°
2026-04-28 08:29 6.50238 -58.25269 100 ft 0 kts 250°
2026-04-28 08:29 6.50244 -58.25286 100 ft 6 kts 315°
2026-04-28 08:30 6.50250 -58.25339 100 ft 9 kts 242°
2026-04-28 08:30 6.50233 -58.25359 100 ft 0 kts 224°